Wind_Speed
8 8 8 8 8 8 8 7 7 7 7 5 5 5 5 4 4 3 1 1 2 4 6 7 9 12 14 16 18 20 23 25 27 30 32 33 34 36 38 39 40 41 42 43
8 8 9 9 8 9 8 8 7 7 6 5 5 4 4 3 3 2 1 2 3 5 8 11 13 15 17 19 21 24 27 29 31 32 34 36 37 38 40 41 42 43 44 44
9 8 8 9 8 7 7 7 6 6 5 4 3 2 2 2 2 3 3 5 7 9 11 14 16 18 21 23 26 28 31 33 35 36 38 40 41 42 42 43 44 45 45 45
9 8 7 7 7 7 6 5 5 4 4 3 3 2 1 2 4 5 7 9 11 13 15 17 19 21 24 27 30 32 35 37 38 40 42 43 44 45 46 47 47 47 46 47
8 8 7 6 6 6 6 5 5 4 3 2 2 2 3 5 6 8 10 12 13 15 17 20 22 24 27 30 33 35 37 39 41 42 44 44 45 46 47 47 47 47 47 47
7 6 5 5 5 4 4 4 3 3 2 3 3 5 6 7 9 10 12 14 16 19 21 23 25 28 30 33 35 37 39 41 42 43 44 45 45 46 47 47 48 48 48 48
6 6 5 4 4 3 2 1 0 1 2 3 4 6 8 10 11 13 15 18 20 22 25 27 28 31 33 35 37 39 40 42 43 44 45 45 46 46 46 46 47 48 47 47
5 5 4 3 3 2 1 1 2 2 3 4 6 8 10 12 13 15 17 19 21 24 26 28 31 33 35 37 38 39 41 43 43 44 45 45 45 45 46 47 47 47 46 45
3 3 2 2 1 0 1 2 3 4 6 7 8 10 11 13 15 17 19 21 24 26 29 31 33 35 36 37 38 40 42 43 43 44 45 46 46 46 47 47 47 47 46 45
2 2 1 1 0 1 2 3 4 5 6 8 10 11 13 15 18 20 23 25 27 30 32 34 36 37 39 40 41 42 43 44 44 45 46 47 47 48 47 47 47 47 46 45
3 2 2 2 2 3 4 5 6 7 9 10 12 14 16 18 20 23 25 27 29 32 35 37 38 39 41 42 43 44 44 45 46 47 48 48 48 48 48 47 47 47 45 45
5 5 4 5 5 5 6 7 8 10 11 13 14 16 18 20 23 25 27 29 32 35 37 39 40 41 42 44 45 45 47 48 49 49 50 50 50 49 48 47 46 45 44 43
8 8 8 8 8 8 9 10 11 12 14 15 17 19 21 23 26 28 30 32 35 37 39 40 42 43 44 45 47 48 49 50 51 51 51 50 49 48 47 45 44 43 41 40
11 11 11 11 11 11 12 13 14 15 16 18 20 22 24 26 28 30 33 35 37 40 41 42 43 44 46 47 49 50 50 51 52 51 51 50 48 47 46 44 42 40 39 38
14 14 14 14 14 14 15 16 17 18 19 21 23 25 27 29 31 33 35 38 40 42 43 44 45 46 48 49 50 50 51 51 51 50 50 49 47 45 44 42 40 38 37 36
17 17 17 17 17 18 18 19 20 21 22 24 25 27 29 31 33 36 38 40 42 44 45 46 47 48 50 50 50 50 51 51 51 49 48 46 45 43 41 40 38 36 34 34
20 20 19 19 20 20 21 21 22 23 25 26 28 30 32 34 36 38 40 42 44 46 47 48 49 50 51 51 51 51 51 50 50 48 46 44 42 41 39 37 35 34 33 33
23 22 22 22 22 22 23 24 25 26 27 29 31 33 35 36 38 40 42 44 46 47 48 49 50 52 52 52 52 51 51 50 48 46 44 41 39 38 36 34 33 32 31 31
25 25 25 25 24 25 25 26 27 28 30 31 33 35 37 38 40 42 44 46 47 48 49 51 52 53 53 53 52 52 51 49 48 45 42 39 37 36 34 32 31 30 30 30
28 28 27 27 27 27 27 28 29 30 32 33 35 36 38 40 42 44 45 47 48 50 51 52 53 53 53 53 52 51 50 49 47 44 41 38 36 35 33 31 30 29 29 29
30 30 29 29 29 29 29 30 31 32 34 35 37 38 40 42 44 45 46 48 50 51 52 53 53 54 53 53 52 51 50 48 46 44 41 37 35 33 32 30 28 27 27 27
31 31 31 31 31 31 32 32 33 34 35 37 38 40 42 43 45 47 48 49 51 52 52 53 54 54 53 53 52 50 49 47 45 42 39 36 33 31 29 28 26 25 24 24
32 33 33 32 33 33 34 34 35 36 37 38 40 41 43 45 46 48 49 50 52 52 53 53 53 53 53 52 51 49 48 46 43 40 37 33 31 29 27 25 24 23 23 22
33 33 34 34 34 34 35 35 36 37 38 39 41 42 44 46 48 49 50 51 52 52 53 53 53 53 52 52 50 48 46 44 41 37 34 31 29 27 25 24 23 22 22 21
34 34 34 35 35 36 36 36 37 38 39 41 42 44 45 47 48 50 51 51 51 52 52 52 52 52 51 50 49 47 45 42 38 35 32 29 27 26 24 23 21 20 20 20
34 34 34 35 36 36 37 37 38 39 40 41 43 45 46 47 49 50 50 51 51 52 52 52 52 51 50 49 48 46 43 40 36 34 31 28 26 24 23 22 21 19 19 19
35 35 35 35 36 36 37 38 39 40 41 42 44 45 47 48 49 50 50 51 51 52 52 52 52 51 49 48 46 44 41 38 35 32 30 27 25 23 22 21 20 19 19 18
Wind_Direction
151 150 152 153 151 151 157 160 156 149 151 155 153 151 150 156 159 165 189 258 289 298 296 293 289 286 285 285 288 287 285 283 282 282 280 279 276 273 272 271 270 269 268 266
150 146 148 151 153 150 149 151 153 152 148 142 150 161 170 173 177 192 247 285 293 289 292 293 292 291 291 291 290 290 288 287 286 284 281 280 278 275 274 273 272 271 269 267
148 145 144 148 152 156 151 146 146 144 139 139 147 169 203 230 250 266 280 285 290 296 296 295 294 293 294 294 294 292 291 289 287 286 284 283 281 278 277 275 274 273 272 271
148 148 148 146 155 163 169 170 169 163 160 163 170 190 235 276 288 292 293 294 296 300 302 302 299 297 296 295 294 292 291 289 287 286 285 283 281 280 279 277 275 273 272 271
150 149 146 148 152 164 175 182 181 182 187 201 224 270 295 301 303 302 301 301 302 303 304 304 303 302 300 298 297 294 293 291 289 288 286 285 283 281 279 277 274 272 271 270
152 150 148 145 146 146 153 168 182 204 235 268 291 303 309 310 310 309 309 309 309 307 306 306 306 306 304 303 301 298 296 295 293 291 290 288 286 284 282 280 277 274 273 269
148 144 140 137 136 136 136 138 145 254 281 300 311 313 312 312 314 315 314 312 312 311 310 310 309 309 308 307 305 303 301 299 297 295 293 291 289 287 286 283 279 277 275 272
135 137 139 140 134 128 101 23 359 341 327 323 322 321 320 320 319 319 319 317 316 315 314 314 313 313 312 311 309 306 304 302 300 298 296 294 292 289 288 286 283 279 277 273
127 127 132 132 133 128 342 344 342 337 332 330 328 327 327 327 326 324 322 321 320 319 318 317 316 316 315 314 312 310 308 305 303 301 299 297 295 293 291 289 286 282 278 273
159 163 180 188 240 290 313 324 325 324 324 324 325 325 325 324 324 323 323 322 321 320 319 318 317 316 315 313 311 309 307 306 304 303 300 299 297 295 293 290 287 283 279 275
210 221 241 260 274 285 294 304 310 313 314 315 317 319 319 320 320 320 321 321 320 320 319 318 317 315 314 312 310 308 307 305 304 302 301 299 298 297 293 290 288 284 279 275
243 253 261 271 280 287 295 301 306 310 311 311 313 316 317 317 318 319 320 320 320 320 319 318 316 315 314 312 311 309 307 306 304 302 301 301 300 297 294 291 288 284 280 275
260 264 268 273 278 284 291 298 304 308 310 310 312 314 316 317 318 319 319 319 319 320 319 318 316 315 313 312 311 309 307 307 305 303 302 301 299 297 294 291 288 285 281 276
267 272 273 275 278 283 288 294 301 306 308 309 311 312 314 316 317 318 318 319 319 319 318 317 316 315 314 313 311 310 309 308 307 304 302 300 298 297 295 292 288 284 279 275
268 272 275 277 279 282 287 292 298 302 305 307 309 311 313 315 316 317 318 319 319 319 319 318 317 316 316 315 314 313 311 310 308 305 302 300 299 297 295 292 290 285 279 274
270 274 277 279 281 284 287 292 296 300 304 306 307 309 312 314 315 316 318 319 319 320 319 319 318 318 318 317 316 315 314 312 310 307 304 302 299 296 293 291 289 286 279 273
270 272 275 278 281 284 287 292 295 298 301 304 306 309 311 313 314 316 318 319 320 320 320 319 319 319 319 319 318 317 316 315 313 310 306 303 299 296 293 290 287 284 280 274
269 271 274 277 281 283 287 291 294 297 300 303 305 308 310 313 314 316 318 319 320 320 320 320 320 320 320 319 319 318 317 317 316 313 309 304 301 298 294 290 286 282 278 274
267 269 273 276 279 282 285 290 293 296 299 302 305 308 310 312 314 316 317 318 319 320 320 320 320 320 320 320 320 319 318 318 317 314 310 306 302 300 296 291 286 282 277 273
268 269 272 275 278 281 285 289 292 295 298 301 305 308 310 312 314 316 317 318 319 320 320 320 320 321 321 321 320 320 319 318 317 314 311 306 303 300 296 291 286 282 277 273
267 269 271 275 277 280 283 288 292 295 298 301 304 307 310 312 314 315 317 318 319 320 320 320 320 321 321 321 321 320 319 318 317 314 311 307 303 300 296 292 287 282 278 273
268 269 270 273 277 279 282 286 291 295 298 301 304 306 309 312 313 315 316 318 319 320 320 320 321 321 322 322 321 320 319 318 317 315 311 307 304 300 295 291 287 282 278 273
268 269 270 273 277 279 282 286 291 295 298 301 304 306 309 312 314 315 316 317 319 320 321 321 321 322 323 323 322 321 320 318 317 315 312 308 304 300 295 290 286 281 277 271
267 268 270 273 276 280 283 286 290 294 297 300 303 307 310 312 314 315 316 317 319 320 321 322 322 323 323 323 322 322 321 319 317 315 312 308 304 300 296 290 285 280 275 270
266 268 270 273 276 279 283 287 291 294 297 300 304 307 310 312 313 315 316 317 319 321 322 322 322 323 323 323 322 321 320 319 317 315 313 309 304 299 295 291 286 280 275 269
266 268 270 273 276 280 283 287 291 294 297 301 304 306 309 311 313 315 316 317 319 321 322 322 322 323 322 322 322 321 320 318 316 314 312 309 305 300 295 290 284 279 274 269
266 268 271 274 277 280 283 287 290 294 297 301 304 306 309 311 313 315 316 317 319 321 321 322 322 323 322 321 321 320 320 318 316 313 311 308 304 300 295 290 283 277 273 269
Height
5619 5621 5622 5624 5625 5627 5628 5629 5631 5632 5633 5634 5636 5637 5638 5640 5641 5643 5644 5645 5646 5647 5648 5649 5650 5651 5652 5653 5652 5652 5652 5652 5651 5650 5649 5649 5648 5648 5647 5647 5647 5646 5646 5646
5621 5622 5624 5625 5627 5628 5629 5631 5632 5633 5635 5635 5637 5638 5639 5641 5642 5643 5644 5645 5646 5646 5647 5647 5648 5648 5647 5647 5647 5646 5645 5643 5642 5640 5639 5638 5637 5635 5634 5634 5633 5632 5632 5632
5623 5624 5626 5628 5628 5630 5631 5632 5633 5634 5636 5636 5637 5638 5639 5640 5641 5642 5643 5644 5644 5644 5644 5644 5643 5643 5642 5641 5640 5638 5636 5634 5632 5630 5628 5626 5624 5622 5621 5620 5619 5618 5618 5617
5624 5627 5628 5631 5630 5631 5632 5633 5634 5635 5636 5637 5638 5639 5639 5640 5640 5641 5641 5641 5641 5640 5640 5639 5638 5636 5635 5633 5631 5629 5626 5623 5621 5618 5616 5613 5610 5608 5606 5605 5604 5603 5602 5602
5626 5627 5629 5630 5631 5631 5633 5634 5635 5636 5636 5637 5638 5638 5639 5639 5639 5639 5638 5638 5637 5636 5635 5633 5631 5629 5626 5624 5621 5618 5615 5611 5608 5604 5601 5598 5595 5592 5590 5589 5587 5586 5586 5585
5627 5628 5630 5632 5632 5632 5634 5634 5635 5635 5635 5636 5637 5637 5638 5637 5636 5636 5635 5634 5632 5631 5629 5626 5624 5620 5617 5614 5610 5606 5603 5599 5594 5591 5587 5583 5580 5577 5574 5572 5570 5569 5569 5568
5628 5629 5631 5632 5632 5633 5635 5636 5634 5634 5634 5635 5635 5636 5635 5634 5633 5632 5631 5629 5627 5624 5622 5619 5616 5612 5608 5604 5599 5595 5590 5586 5581 5577 5572 5568 5565 5562 5558 5556 5554 5553 5552 5552
5629 5630 5634 5632 5632 5634 5635 5634 5634 5633 5633 5633 5633 5632 5632 5631 5629 5628 5626 5624 5622 5619 5616 5612 5608 5604 5599 5594 5589 5584 5579 5574 5568 5564 5559 5555 5551 5547 5544 5541 5538 5536 5534 5534
5631 5633 5632 5632 5632 5633 5633 5633 5633 5633 5632 5632 5631 5630 5629 5628 5626 5624 5622 5619 5616 5612 5608 5604 5600 5595 5590 5585 5579 5574 5568 5562 5557 5551 5546 5541 5537 5533 5529 5525 5521 5519 5518 5518
5631 5631 5632 5632 5632 5632 5632 5632 5632 5632 5631 5630 5629 5628 5626 5624 5622 5619 5616 5613 5609 5605 5601 5596 5591 5586 5581 5575 5569 5563 5557 5551 5545 5540 5534 5528 5523 5518 5514 5510 5506 5504 5502 5502
5630 5631 5631 5631 5631 5631 5631 5631 5630 5630 5629 5628 5626 5625 5623 5620 5617 5614 5611 5607 5603 5598 5594 5588 5582 5577 5571 5565 5558 5552 5546 5540 5534 5527 5521 5516 5510 5505 5499 5495 5491 5489 5488 5487
5630 5630 5630 5630 5629 5629 5629 5628 5628 5627 5626 5624 5623 5621 5618 5615 5612 5609 5605 5600 5596 5591 5585 5579 5573 5567 5560 5554 5547 5540 5534 5527 5520 5514 5508 5502 5496 5491 5485 5481 5477 5474 5472 5472
5627 5627 5627 5627 5627 5627 5626 5625 5624 5623 5622 5620 5618 5616 5613 5609 5606 5602 5598 5593 5588 5582 5576 5570 5563 5556 5549 5542 5535 5528 5521 5514 5507 5500 5493 5487 5481 5476 5471 5467 5463 5460 5458 5457
5624 5624 5624 5624 5624 5623 5622 5621 5620 5619 5617 5615 5612 5610 5606 5603 5599 5595 5590 5585 5579 5573 5566 5559 5552 5545 5538 5530 5522 5515 5507 5500 5492 5485 5478 5472 5466 5461 5456 5452 5449 5446 5444 5443
5620 5620 5620 5620 5620 5619 5618 5617 5615 5613 5611 5609 5606 5603 5599 5596 5591 5586 5581 5576 5570 5563 5556 5548 5541 5534 5526 5517 5509 5501 5493 5485 5477 5470 5463 5457 5451 5446 5441 5437 5435 5433 5431 5430
5615 5615 5615 5615 5614 5613 5612 5611 5609 5607 5605 5602 5599 5596 5592 5587 5583 5577 5572 5566 5560 5553 5545 5537 5529 5522 5513 5505 5497 5488 5480 5471 5462 5455 5448 5442 5436 5432 5428 5424 5422 5419 5418 5418
5610 5609 5609 5609 5608 5607 5606 5604 5602 5600 5597 5595 5591 5588 5583 5578 5573 5568 5562 5556 5549 5541 5534 5526 5518 5509 5501 5492 5484 5475 5466 5457 5449 5441 5434 5428 5423 5418 5415 5412 5410 5408 5407 5406
5603 5603 5603 5602 5601 5600 5599 5597 5595 5592 5590 5587 5583 5579 5574 5569 5564 5558 5552 5545 5538 5530 5522 5514 5506 5497 5488 5480 5471 5462 5454 5445 5436 5428 5421 5415 5410 5406 5403 5400 5398 5397 5396 5396
5595 5595 5595 5594 5594 5592 5591 5589 5587 5584 5581 5578 5574 5569 5565 5560 5554 5548 5541 5534 5527 5519 5511 5502 5494 5485 5476 5467 5459 5450 5441 5433 5424 5416 5409 5404 5399 5395 5392 5389 5387 5386 5386 5386
5587 5587 5587 5586 5585 5584 5583 5581 5578 5575 5572 5569 5564 5560 5555 5549 5544 5537 5530 5523 5516 5508 5500 5491 5482 5473 5464 5455 5446 5438 5429 5421 5413 5405 5399 5393 5389 5385 5381 5379 5377 5376 5376 5376
5578 5578 5578 5577 5576 5575 5574 5572 5569 5566 5563 5559 5555 5550 5545 5539 5533 5526 5519 5512 5504 5496 5488 5479 5470 5461 5452 5443 5434 5425 5417 5409 5401 5394 5388 5383 5378 5375 5371 5369 5367 5366 5366 5366
5568 5568 5568 5568 5567 5566 5564 5562 5560 5556 5553 5549 5545 5540 5534 5528 5522 5515 5508 5501 5493 5485 5476 5467 5458 5449 5440 5431 5422 5414 5405 5397 5390 5383 5377 5372 5368 5365 5362 5360 5359 5358 5357 5357
5559 5559 5559 5558 5557 5556 5554 5552 5549 5546 5543 5539 5534 5529 5524 5517 5511 5504 5497 5489 5481 5473 5464 5455 5446 5437 5429 5420 5411 5402 5394 5387 5379 5373 5368 5363 5359 5356 5353 5352 5351 5350 5349 5350
5549 5549 5548 5548 5547 5546 5544 5541 5539 5536 5532 5528 5523 5518 5512 5506 5499 5492 5485 5477 5469 5461 5452 5443 5435 5426 5417 5408 5400 5392 5384 5376 5370 5363 5358 5354 5351 5348 5346 5344 5343 5342 5342 5342
5538 5538 5538 5537 5536 5535 5533 5530 5528 5525 5521 5517 5512 5507 5501 5494 5488 5481 5473 5465 5457 5449 5441 5432 5423 5414 5406 5397 5389 5381 5374 5367 5360 5355 5350 5346 5343 5340 5338 5337 5336 5335 5335 5335
5527 5527 5527 5527 5525 5524 5522 5519 5517 5513 5510 5505 5500 5495 5489 5482 5476 5469 5461 5454 5446 5438 5429 5421 5412 5403 5395 5387 5379 5371 5364 5357 5352 5346 5342 5338 5335 5333 5331 5329 5328 5328 5328 5328
5516 5516 5516 5515 5514 5513 5511 5508 5505 5502 5498 5494 5489 5483 5477 5471 5464 5457 5450 5442 5434 5426 5418 5409 5401 5392 5384 5376 5368 5361 5354 5348 5343 5338 5334 5331 5328 5325 5323 5322 5321 5321 5321 5321